TimeAKST,TemperatureF,Dew PointF,Humidity,Sea Level PressureIn,VisibilityMPH,Wind Direction,Wind SpeedMPH,Gust SpeedMPH,PrecipitationIn,Events,Conditions,WindDirDegrees,DateUTC
12:54 AM,24.1,12.9,62,29.83,10.0,NNW,11.5,20.7,N/A,,Overcast,330,2012-11-24 09:54:00
1:54 AM,23.0,12.0,63,29.83,10.0,NW,15.0,21.9,N/A,,Overcast,310,2012-11-24 10:54:00
2:54 AM,23.0,10.9,60,29.83,10.0,NW,17.3,24.2,N/A,,Overcast,320,2012-11-24 11:54:00
3:54 AM,24.1,10.9,57,29.84,10.0,NW,17.3,26.5,N/A,,Overcast,320,2012-11-24 12:54:00
4:54 AM,24.1,10.9,57,29.84,10.0,NNW,16.1,26.5,N/A,,Overcast,330,2012-11-24 13:54:00
5:54 AM,24.1,10.9,57,29.85,10.0,NNW,12.7,25.3,N/A,,Overcast,330,2012-11-24 14:54:00
6:54 AM,23.0,10.9,60,29.86,10.0,NW,12.7,25.3,N/A,,Overcast,310,2012-11-24 15:54:00
7:54 AM,23.0,10.0,58,29.88,10.0,NW,13.8,25.3,N/A,,Overcast,320,2012-11-24 16:54:00
8:54 AM,21.9,10.0,60,29.89,10.0,NW,16.1,21.9,N/A,,Overcast,310,2012-11-24 17:54:00
9:54 AM,23.0,9.0,55,29.91,10.0,NW,18.4,23.0,N/A,,Partly Cloudy,310,2012-11-24 18:54:00
10:54 AM,24.1,9.0,53,29.92,10.0,NW,19.6,25.3,N/A,,Mostly Cloudy,310,2012-11-24 19:54:00
11:54 AM,24.1,9.0,53,29.93,10.0,NW,19.6,26.5,N/A,,Clear,320,2012-11-24 20:54:00
12:54 PM,24.1,10.0,55,29.95,10.0,NW,16.1,24.2,N/A,,Clear,310,2012-11-24 21:54:00
1:54 PM,24.1,10.0,55,29.96,10.0,NW,12.7,27.6,N/A,,Clear,320,2012-11-24 22:54:00
2:54 PM,24.1,9.0,53,29.97,10.0,NW,15.0,24.2,N/A,,Partly Cloudy,320,2012-11-24 23:54:00
3:54 PM,23.0,9.0,55,29.99,10.0,NW,12.7,23.0,N/A,,Clear,320,2012-11-25 00:54:00
4:54 PM,21.9,9.0,58,30.01,10.0,NW,16.1,23.0,N/A,,Mostly Cloudy,310,2012-11-25 01:54:00
5:54 PM,21.9,10.0,60,30.01,10.0,WNW,17.3,24.2,N/A,,Overcast,300,2012-11-25 02:54:00
6:54 PM,21.9,9.0,58,30.04,10.0,NW,13.8,21.9,N/A,,Overcast,310,2012-11-25 03:54:00
7:54 PM,21.9,9.0,58,30.05,10.0,WNW,20.7,25.3,N/A,,Overcast,300,2012-11-25 04:54:00
8:54 PM,21.0,9.0,60,30.08,10.0,WNW,13.8,-,N/A,,Partly Cloudy,300,2012-11-25 05:54:00
9:54 PM,21.0,9.0,60,30.10,10.0,NW,11.5,-,N/A,,Clear,310,2012-11-25 06:54:00
10:54 PM,21.0,9.0,60,30.12,10.0,NW,11.5,-,N/A,,Clear,310,2012-11-25 07:54:00
11:54 PM,21.0,8.1,57,30.14,10.0,WNW,13.8,-,N/A,,Clear,300,2012-11-25 08:54:00